Location: Drocourt
(49.0571°N, 1.7669°E)
Time: 14:49:03
(UTC+00:00)

SR - Pass Details

Date: 29 April 2024
Orbit: 579 x 860 km, 66.7° (Epoch: 22 May)

Event Time Altitude Azimuth Distance (km) Brightness Sun altitude
Exits shadow 22:01:30 13° 81° (E) 2,047 ? -21.7°
Drops below altitude 10° 22:02:36 10° 70° (ENE) 2,258 ? -21.8°
Sets 22:05:42 0° 50° (NE) 3,125 ? -22.0°
